Regional Weather Roundup
Issued by NWS

Home | Current Version | Previous Version | Text Only | Print | Product List | Glossary On
Versions: 1 2 3 4 5 6 7 8 9 10 11 12 13 14 15 16 17 18 19 20 21 22 23 24 25 26 27 28 29 30 31 32 33 34 35 36 37 38 39 40 41 42 43 44 45 46 47 48 49 50
295
ASUS44 KJAN 242003
RWRMS

MISSISSIPPI HOURLY WEATHER ROUNDUP
NATIONAL WEATHER SERVICE JACKSON MS
300 PM CDT FRI OCT 24 2014

NOTE: "FAIR: INDICATES FEW OR NO CLOUDS BELOW 12,000 FEET WITH NO
SIGNIFICANT WEATHER AND/OR OBSTRUCTIONS TO VISIBILITY.

MSZ001>002-007>008-010>013-018>021-025>028-034>036-242100-
NORTHWEST MISSISSIPPI

CITY           SKY/WX    TMP DP  RH WIND       PRES   REMARKS
CLARKSDALE     FAIR      72  52  49 N7        30.11F
CLEVELAND      FAIR      73  50  45 N5        30.10S
GREENWOOD      SUNNY     73  44  35 N8        30.10S
GREENVILLE     SUNNY     73  48  41 NW6       30.10F
GRENADA          N/A    N/A N/A N/A MISG        N/A
OLIVE BRANCH   MOSUNNY   72  54  53 N6        30.09F
OXFORD         FAIR      70  48  46 NW6       30.11F
TUNICA         CLEAR     72  52  49 W3        30.10F
$$

MSZ003>006-009-014>017-022>024-029>033-037>039-242100-
NORTHEAST MISSISSIPPI

CITY           SKY/WX    TMP DP  RH WIND       PRES   REMARKS
COLUMBUS AFB   SUNNY     73  41  31 NW12      30.07F
CORINTH        FAIR      72  48  43 VRB6      30.08S
GOLDN TRIANGLE SUNNY     75  45  33 NW8       30.06F
STARKVILLE     FAIR      72  41  33 NW5       30.07F
TUPELO         SUNNY     72  37  28 N6        30.08F
$$

MSZ040-058-242100-
CENTRAL MISSISSIPPI

CITY           SKY/WX    TMP DP  RH WIND       PRES   REMARKS
JACKSON INTL   SUNNY     75  42  30 N8        30.08S
JACKSON HAWKNS SUNNY     74  41  30 NW7       30.08F
MERIDIAN KEY   SUNNY     75  43  31 NW10      30.06S
MERIDIAN NAS   SUNNY     76  39  26 N9        30.06S
RAYMOND        FAIR      73  68  83 NW7       30.09S
VICKSBURG      SUNNY     74  43  32 N5        30.10F
$$

MSZ059>079-242100-
SOUTH MISSISSIPPI

CITY           SKY/WX    TMP DP  RH WIND       PRES   REMARKS
BROOKHAVEN     FAIR      73  45  35 CALM      30.09S
HATTIESBURG    SUNNY     75  46  35 N7        30.05F
MCCOMB         SUNNY     75  40  28 N10G17    30.07F
NATCHEZ        SUNNY     72  43  35 N8        30.10S
PINE BELT      SUNNY     75  45  33 NW9       30.08S
$$

MSZ080>082-242100-
COASTAL MISSISSIPPI

CITY           SKY/WX    TMP DP  RH WIND       PRES   REMARKS
BAY ST LOUIS   SUNNY     77  37  24 N7        30.03F
BILOXI         SUNNY     77  42  28 N10       30.02F
PASCAGOULA     SUNNY     78  40  25 NE9G17    30.01F
GULFPORT       SUNNY     77  45  32 N8        30.02F
$$



USA.gov is the U.S. government's official web portal to all federal, state and local government web resources and services.